Regional Weather Roundup
Issued by NWS Upton, NY

Current Version | Previous Version | Graphics & Text | Print | Product List | Glossary Off
Versions: 1 2 3 4 5 6 7 8 9 10 11 12 13 14 15 16 17 18 19 20 21 22 23 24 25 26 27 28 29 30 31 32 33 34 35 36 37 38 39 40 41 42 43 44 45 46 47 48 49 50

000
ASUS41 KOKX 071618
RWROKX

REGIONAL WEATHER ROUNDUP
NATIONAL WEATHER SERVICE NEW YORK NY
1200 PM EDT TUE JUL 07 2015

NOTE: "FAIR" INDICATES FEW OR NO CLOUDS BELOW 12,000 FEET WITH NO
SIGNIFICANT WEATHER AND/OR OBSTRUCTIONS TO VISIBILITY.

NYZ071-072-176-178-NJZ106-104-071700-
NEW YORK CITY METRO AREA


CITY           SKY/WX    TMP DP  RH WIND       PRES   REMARKS
CENTRAL PARK   PTSUNNY   83  72  69 MISG      30.04F
LAGUARDIA APRT PTSUNNY   85  72  65 S17       30.00F HX  91
KENNEDY INTL   MOSUNNY   83  73  72 S15       30.04F
NEWARK/LIBERTY PTSUNNY   85  71  63 S12G17    30.01F HX  90
BRNX BOT. GARD   N/A     81  72  74 CALM      30.03S
TETERBORO      MOSUNNY   86  69  56 SW10      29.99F HX  90
$$

NYZ177-179-078>081-071700-
LONG ISLAND NEW YORK

CITY           SKY/WX    TMP DP  RH WIND       PRES   REMARKS
FARMINGDALE    MOSUNNY   82  74  76 S13       30.04F
ISLIP          CLOUDY    79  73  82 S10       30.03F
SHIRLEY        CLOUDY    77  72  84 S12       30.07S
WESTHAMPTON    CLOUDY    77  74  90 S12       30.08F FOG
MONTAUK POINT    N/A     75  71  87 VRB7      30.10F
$$

NYZ052-065-067-071700-
HUDSON VALLEY

CITY           SKY/WX    TMP DP  RH WIND       PRES   REMARKS
WHITE PLAINS   PTSUNNY   81  74  79 S6        30.02F
NEWBURGH       MOSUNNY   79  72  78 VRB6      30.02F
MONTGOMERY     PTSUNNY   83  72  69 SW9       30.00F
POUGHKEEPSIE   CLOUDY    82  70  66 VRB6      29.99F
ALBANY         PTSUNNY   79  69  71 S9        29.98F
$$

NJZ001-105-106-008-010-013-015-019>022-104-071700-
NEW JERSEY

CITY           SKY/WX    TMP DP  RH WIND       PRES   REMARKS
NEWARK/LIBERTY PTSUNNY   85  71  63 S12G17    30.01F HX  90
TETERBORO      MOSUNNY   86  69  56 SW10      29.99F HX  90
CALDWELL       MOSUNNY   83  70  64 SW8       30.02F
MORRISTOWN     PTSUNNY   88  73  62 MISG      30.02F HX  96
SOMERVILLE     PTSUNNY   83  72  69 CALM      30.00F
SUSSEX         NOT AVBL
ANDOVER          N/A     81  71  71 SW10      30.03F
TRENTON        MOSUNNY   83  72  69 SW8       30.02F
MILLVILLE      MOSUNNY   84  73  69 SW7       30.04F HX  90
ATLANTIC CITY  MOSUNNY   85  73  67 SW9       30.04F HX  91
WRIGHTSTOWN    SUNNY     86  73  63 W9        30.00F HX  93
TOMS RIVER     PTSUNNY   88  72  58 W9        30.02F HX  94
BELMAR         PTSUNNY   84  72  65 SE9       30.02F
$$

PAZ047>061-062-071-071700-
EASTERN PENNSYLVANIA

CITY           SKY/WX    TMP DP  RH WIND       PRES   REMARKS
PHILADELPHIA   MOSUNNY   84  70  62 SW7       30.03F
ALLENTOWN      PTSUNNY   82  71  69 SW7       30.02S
SCRANTON       PTSUNNY   81  69  67 SW7       30.02F
$$

CTZ002-004>006-009-010-012-RIZ004-006-007-MAZ004-011-015-071700-
SOUTHERN NEW ENGLAND
 IN CT

CITY           SKY/WX    TMP DP  RH WIND       PRES   REMARKS
BRADLEY INTL   PTSUNNY   80  70  71 S9        30.02F
HARTFORD       CLOUDY    81  72  74 SE14G22   30.02F
DANBURY        PTSUNNY   79  70  74 SW7       30.04F
WTRBRY/OXFORD  CLOUDY    75  68  78 S15       30.06F FOG
BRIDGEPORT     SUNNY     81  73  76 SE10      30.03F
MERIDEN        PTSUNNY   81  71  71 SE10G18   30.03F
NEW HAVEN      MOSUNNY   80  73  79 SE10      30.04F
CHESTER        CLOUDY    75  73  94 S8        30.07F
GROTON         CLOUDY    74  71  91 SE13      30.07F FOG
WILLIMANTIC    PTSUNNY   81  71  71 S10G18    30.06F

 IN RI

CITY           SKY/WX    TMP DP  RH WIND       PRES   REMARKS
PROVIDENCE     PTSUNNY   77  72  84 S6        30.08F
BLOCK ISLAND   CLOUDY    75  72  88 S14       30.11S
WESTERLY       CLOUDY    75  72  90 S14       30.10S

 IN MA

CITY           SKY/WX    TMP DP  RH WIND       PRES   REMARKS
BOSTON         PTSUNNY   77  69  76 E7        30.07F
WORCESTER      PTSUNNY   77  68  73 S12       30.09F
WESTFIELD      CLOUDY    76  70  82 SW6       30.04F
PROVINCETOWN   SUNNY     81  70  69 S16       30.10F
NANTUCKET      CLOUDY    72  68  87 SE12      30.12F FOG
$$

ANZ330-335-338-340-345-350-353-355-071700-
COASTAL MARINE OBSERVATIONS


STATION/POSITION TIME  SKY/WX   TEMP    WIND        PRES    VSBY  WAVE
                                AIR SEA DIR/SP/G                  HT/PER
                 (UTC)          (F)     (DEG/KT/KT) (MB)    (MI)  (FT/S)
NY HARB ENTRANCE 1550            74 73  180/ 14/ 16 1016.5          2/ 9
4S FIRE IS       1503               69                N/A           2/ 6
20S FIRE ISLAND  1550            73 71  190/ 10/ 12 1017.3          2/14
GREAT SOUTH BAY  1515            74 77  220/ 10/ 12   N/A
23SW MTP         1550            72 70  180/ 10/ 12 1018.4          2/ 8
HUDSON CANYON    NOT AVBL
KINGS POINT      1500               72                N/A
CENTRAL LI SOUND NOT AVBL
EASTERN LI SOUND 1500            68 65  130/  6/  8   N/A
ROBBINS REEF     1506            78     170/ 13/ 16 1015.6
$$


>>>>>>>>>>>>>>>>>>>>>>>>>>>> KEY <<<<<<<<<<<<<<<<<<<<<<<<<<<
>                                                          <
>     SKY/WX - SKY CONDITION/PRESENT WEATHER               <
>     TMP    - TEMPERATURE IN FAHRENHEIT                   <
>     DP     - DEWPOINT IN FAHRENHEIT                      <
>     RH     - RELATIVE HUMIDITY IN PERCENT                <
>     WIND   - DIRECTION AND SPEED IN MPH                  <
>     PRES   - MEAN SEA LEVEL PRESSURE IN INCHES OF HG     <
>     WCI    - WIND CHILL INDEX                            <
>     VSB    - VISIBILITY IN MILES                         <
>     HX     - HEAT INDEX                                  <
>     TC     - TEMPERATURE IN CELSIUS                      <
>     VRB    - VARIABLE WIND DIRECTION                     <
>                                                          <
>>>>>>>>>>>>>>>>>>>>>>>>>>>> KEY <<<<<<<<<<<<<<<<<<<<<<<<<<<





USA.gov is the U.S. government's official web portal to all federal, state and local government web resources and services.